Regional Weather Roundup
Issued by NWS

Home | Current Version | Previous Version | Graphics & Text | Print | Product List | Glossary Off
Versions: 1 2 3 4 5 6 7 8 9 10 11 12 13 14 15 16 17 18 19 20 21 22 23 24 25 26 27 28 29 30 31 32 33 34 35 36 37 38 39 40 41 42 43 44 45 46 47 48 49 50

000
ASUS43 KMKX 080121
RWRWI

WISCONSIN REGIONAL WEATHER ROUNDUP
NATIONAL WEATHER SERVICE MILWAUKEE/SULLIVAN WI
800 PM CDT TUE JUL 07 2015

NOTE: "FAIR" INDICATES FEW OR NO CLOUDS BELOW 12,000 FEET WITH NO
SIGNIFICANT WEATHER AND/OR OBSTRUCTIONS TO VISIBILITY.

WIZ001-002-006>008-014>016-023>028-080200-
NORTHWEST WISCONSIN

CITY           SKY/WX    TMP DP  RH WIND       PRES   REMARKS
SUPERIOR ARPT  CLEAR     67  50  56 S6        30.08S
ASHLAND        CLEAR     64  52  64 S3        30.10S
HAYWARD        CLEAR     67  49  52 CALM      30.12S
SIREN          CLEAR     68  43  40 CALM      30.11S
CUMBERLAND     CLEAR     64  45  48 CALM      30.12S
RICE LAKE      CLEAR     66  49  54 CALM      30.13S
CHETEK         NOT AVBL
LADYSMITH      CLEAR     63  50  62 NE5       30.13S
EAU CLAIRE     CLEAR     69  48  47 N3        30.09S
MENOMONIE      CLEAR     68  48  49 N5        30.10S
NEW RICHMOND   CLEAR     66  52  60 CALM      30.12S
OSCEOLA        CLEAR     67  48  49 CALM      30.14S
$$

WIZ003>005-009-010-017-018-080200-
NORTH CENTRAL WISCONSIN

CITY           SKY/WX    TMP DP  RH WIND       PRES   REMARKS
MANITOWISH WTR CLEAR     61  43  52 N3        30.12S
ARBOR VITAE    CLEAR     62  47  58 NW3       30.12S
WOODRUFF       CLEAR     62  47  58 NW3       30.12S
RHINELANDER    CLEAR     63  44  50 N3        30.12R
EAGLE RIVER    CLEAR     61  43  51 N6        30.11S
LAND O LAKES   CLEAR     61  42  49 N5        30.13S
PHILLIPS       CLEAR     60  44  55 CALM      30.11F
TOMAHAWK       CLEAR     62  46  56 CALM      30.12S
MEDFORD        CLEAR     62  48  59 N5        30.11S
MERRILL        CLEAR     63  49  59 NE3       30.11S
$$

WIZ029-030-035-036-043>047-080200-
CENTRAL WISCONSIN

CITY           SKY/WX    TMP DP  RH WIND       PRES   REMARKS
WAUSAU         CLEAR     67  45  45 NE7       30.08S
MOSINEE        CLEAR     64  46  52 N6        30.11R
MARSHFIELD     CLEAR     67  47  48 N3        30.09S
STEVENS POINT  CLEAR     64  48  55 N5        30.10S
WAUPACA        CLEAR     67  49  52 CALM      30.09R
WAUTOMA        CLEAR     68  49  50 N5        30.09R
WISC RAPIDS    CLEAR     68  47  46 NE3       30.10R
CAMP DOUGLAS   MOCLDY    66  54  63 NE3       30.09R
$$

WIZ011>013-019>022-031-037>040-048>050-080200-
NORTHEAST WISCONSIN

CITY           SKY/WX    TMP DP  RH WIND       PRES   REMARKS
ANTIGO         CLEAR     60  50  69 N3        30.11R
SHAWANO        CLEAR     67  48  50 N7        30.09S
OCONTO         PTCLDY    64  53  68 CALM      30.08R
STURGEON BAY   CLEAR     61  46  59 E6        30.11R
GREEN BAY      CLEAR     66  50  56 N6        30.08S
MANITOWOC      CLEAR     60  49  66 MISG      30.10R
APPLETON       PTCLDY    64  46  52 N8        30.09R
CLINTONVILLE   CLEAR     64  48  55 CALM      30.09R
OSHKOSH        CLOUDY    68  48  48 N9        30.08R
$$

WIZ032>034-041-042-053>061-080200-
SOUTHWEST WISCONSIN

CITY           SKY/WX    TMP DP  RH WIND       PRES   REMARKS
LA CROSSE      CLEAR     69  50  50 N3        30.08S
SPARTA         PTCLDY    67  48  50 CALM      30.10S
VIROQUA        MOCLDY    65  53  66 CALM      30.10S
BOSCOBEL       MOCLDY    64  55  72 S3        30.10S
PRAIRIE DU CHI MOCLDY    65  49  55 CALM      30.09S
PLATTEVILLE    CLEAR     62  55  77 NE5       30.10R
$$

WIZ056-057-062-063-064-067-068-080200-
SOUTH CENTRAL WISCONSIN

CITY           SKY/WX    TMP DP  RH WIND       PRES   REMARKS
REEDSBURG      CLOUDY    65  51  60 CALM      30.09S
BARABOO/DELLS  CLOUDY    65  49  56 CALM      30.09S
LONE ROCK      MOCLDY    64  57  78 CALM      30.09F
MINERAL POINT  MOCLDY    64  52  63 CALM      30.10S
MADISON        MOCLDY    67  50  54 NE5       30.08S
MIDDLETON      CLOUDY    64  53  65 CALM      30.09S
WATERTOWN      CLOUDY    64  50  59 CALM      30.08S
MONROE         CLEAR     63  52  67 N6        30.08S
JANESVILLE     PTCLDY    66  46  48 N7        30.08R
$$

WIZ051-052-058>065-066-070>072-080200-
SOUTHEAST WISCONSIN

CITY           SKY/WX    TMP DP  RH WIND       PRES   REMARKS
MILWAUKEE      PTCLDY    58  47  66 N7        30.10R
WAUKESHA       MOCLDY    59  46  63 NE9       30.11R
MILWAUKEE/TIMM PTCLDY    57  45  62 NE5       30.11R
RACINE         CLEAR     58  47  66 N7        30.11R
BURLINGTON     CLEAR     59  49  69 E6        30.09S
KENOSHA        CLEAR     59  48  67 NE8       30.09R
FOND DU LAC    MOCLDY    65  51  60 SE8       30.08R
SHEBOYGAN      CLEAR     58  50  75 CALM      30.10R
WEST BEND      MOCLDY    57  46  67 CALM      30.10S
JUNEAU         PTCLDY    62  51  67 CALM      30.09S
$$

LSZ147-162-080200-
LAKE SUPERIOR

STATION/POSITION TIME  TEMP    WIND        PRES    WAVE
                       AIR SEA DIR/SP/G            HT/PER
                 (UTC) (F)     (DEG/KT/KT) (MB)    (FT/S)
W MID LAKE BUOY  0050   46 39  200/  8/  8 1019.1R   1
DEVILS ISLAND    0100   65     180/  6/  8 1018.8S
PORT WING        0000   71     250/  5/  7 1019.0
SAXON HARBOR     0000   71        CALM     1019.0
$$

LMZ867-665-643>646-080200-
LAKE MICHIGAN

STATION/POSITION TIME  TEMP    WIND        PRES    WAVE
                       AIR SEA DIR/SP/G            HT/PER
                 (UTC) (F)     (DEG/KT/KT) (MB)    (FT/S)
CHAMBERS ISLAND  0000   64      40/  9/ 11 1017.9R
S GREEN BAY BUOY 2300   66 68   60/  8/ 12 1019.1F
N MID LAKE BUOY  0050   56 52  320/  4/  6 1018.4R   2/ 4
NORTHPORT PIER   0100   64      30/  6/ 25 1018.3R
SISTER BAY       2359   66      20/  8/ 15   N/A
ALGOMA LAKESHORE 0026             CALM       N/A
KEWAUNEE LAKESHO 0000   59      CALM  /  1 1018.0R
SHEBOYGAN LAKESH 0100   58      CALM  /  1 1019.4R
PORT WASHINGTON  0000   60      40/  4/  6 1019.6R
ATWATER BUOY     0100   59 59  350/  8/ 12 1020.3R
MILWAUKEE LAKESH 0100   60     360/  7/ 10   N/A
KENOSHA   LAKESH 0100   59      10/ 11/ 14 1018.6S
$$

TC  - TEMPERATURE IN CELSIUS
VSB - VISIBILITY IN STATUTE MILES
WCI - WIND CHILL INDEX
HX  - HEAT INDEX




USA.gov is the U.S. government's official web portal to all federal, state and local government web resources and services.